Regional Weather Roundup
Issued by NWS

Home | Current Version | Previous Version | Text Only | Print | Product List | Glossary Off
Versions: 1 2 3 4 5 6 7 8 9 10 11 12 13 14 15 16 17 18 19 20 21 22 23 24 25 26 27 28 29 30 31 32 33 34 35 36 37 38 39 40 41 42 43 44 45 46 47 48 49 50

000
ASUS43 KFSD 301202
RWRSD

WEATHER ROUNDUP FOR SOUTH DAKOTA
NATIONAL WEATHER SERVICE SIOUX FALLS SD
700 AM CDT SAT APR 30 2016

NOTE: "FAIR" INDICATES FEW OR NO CLOUDS BELOW 12,000 FEET WITH NO
SIGNIFICANT WEATHER AND/OR OBSTRUCTIONS TO VISIBILITY.


SDZ001>005-009-010-012>017-301300-
NORTHWEST AND NORTH CENTRAL SOUTH DAKOTA

CITY           SKY/WX    TMP DP  RH WIND       PRES   REMARKS
BUFFALO          N/A     41  35  79 NE10      30.03S
FAITH            N/A     39  36  89 N8        30.07R
MOBRIDGE       CLOUDY    42  39  89 N12       30.06R
$$

SDZ012>016-024>037-041>051-057-063-072>074-301300-
SOUTHWEST AND SOUTH CENTRAL SOUTH DAKOTA

CITY           SKY/WX    TMP DP  RH WIND       PRES   REMARKS
RAPID CTY ARPT CLOUDY    39  37  92 N13       30.04R
PIERRE         CLOUDY    41  37  86 N14       30.01R
CUSTER         CLOUDY    31  28  89 NE15G29   29.96S WCI  20
PHILIP         CLOUDY    42  38  85 N15       30.01S
PINE RIDGE     LGT RAIN  37  34  89 NE16      29.96R
WINNER         LGT RAIN  43  39  86 NE12      29.95R
$$

SDZ004>011-016>023-039-040-301300-
NORTHEAST SOUTH DAKOTA

CITY           SKY/WX    TMP DP  RH WIND       PRES   REMARKS
ABERDEEN       PTCLDY    42  35  76 NE14      30.09R
WATERTOWN      CLOUDY    39  33  79 NE15      30.02S
BROOKINGS      CLOUDY    42  38  85 NE13      29.97S
SISSETON         N/A     39  33  79 E10       30.10S
$$

SDZ017-020-022-023-036>040-048>070-301300-
SOUTHEAST SOUTH DAKOTA

CITY           SKY/WX    TMP DP  RH WIND       PRES   REMARKS
SIOUX FALLS    CLOUDY    44  37  76 NE22G30   29.91F
HURON          CLOUDY    42  38  85 NE15      30.00S
MITCHELL       CLOUDY    43  39  86 NE13      29.96S
YANKTON        CLOUDY    45  37  76 NE16G24   29.88R
$$

ABBREVIATIONS USED IN REMARKS
   TC - TEMPERATURE IN CELSIUS
  WCI - WIND CHILL INDEX
   HX - HEAT INDEX
  VSB - VISIBILITY





USA.gov is the U.S. government's official web portal to all federal, state and local government web resources and services.